Content
SEND FEEDBACK

Daily
Averages
Monthly
Summary
Switzerland

GENEVA, SWITZERLAND


Home > Europe > Switzerland
Elevation: 1364 feet     Latitude: 46 15N     Longitude: 006 08E

WEATHER
 
SELECT A DAY
Number of Records: 317,120;   Date Range: 7/1/96 - 12/17/14
 
SHARE

PRINT THIS DATA

[ ← Previous Day ]
WEATHER ALMANAC - FEBRUARY 16, 2014
[ Next Day → ]
[ °C ]   °F
Weather ElementAverageHighLow
Temperature40.1 °F44.6 °F (1:50 pm)35.6 °F (11:50 pm)
Dewpoint37.1 °F39.2 °F (9:50 am)35 °F (2:00 am)
Humidity87.7 %100 % (12:20 am)60 % (4:00 pm)
Barometer30.02 in30.08 in (8:00 am)29.95 in (8:20 pm)
Wind Speed2.7 mph6.9 mph (6:00 am)
Weather ElementAverage
Visibility8.6 mi
Wind DirectionESE (123.1 °)

Weather ElementTotal
Precipitation---
Heating Degree Days24.9 (Base 65)
Averaged from 70 records on February 16, 2014
WEATHER CONDITIONS BREAKOUT
WIND DIRECTION BREAKOUT
WEATHER BY HOUR - FEBRUARY 16, 2014
[ °C ]   °F
Local TimeTemperatureDewpointHumidityBarometerVisibilityWind DirectionWind SpeedGust SpeedPrecipitationEventsConditions
12:20 AM37.4 °F37.4 °F100 %29.98 in6.2 miVariable2.3 mphRainLight Rain
12:50 AM37.4 °F37.4 °F100 %30.01 in6.2 miWSW (250°)3.5 mphRainRain
1:00 AM38.0 °F36.0 °F88 %30.05 in7.0 miSW (220°)4.6 mphRainRain
1:20 AM37.4 °F37.4 °F100 %30.01 in6.2 miWSW (250°)4.6 mphRainLight Rain
1:50 AM37.4 °F37.4 °F100 %30.01 in6.2 miWSW (240°)3.5 mphRainLight Rain
2:00 AM38.0 °F35.0 °F87 %30.06 inWSW (240°)4.6 mph
2:50 AM37.4 °F37.4 °F100 %30.01 in6.2 miWSW (240°)4.6 mphRainLight Rain
3:00 AM38.0 °F35.0 °F87 %30.06 inWest (260°)4.6 mph
3:20 AM37.4 °F35.6 °F93 %30.01 in6.2 miVariable1.2 mphRainLight Rain
3:50 AM37.4 °F35.6 °F93 %30.01 in6.2 miWest (280°)3.5 mphRainLight Rain
4:00 AM38.0 °F35.0 °F84 %30.05 in12.0 miWNW (290°)3.5 mphRainLight Rain
4:20 AM37.4 °F35.6 °F93 %30.01 in6.2 miVariable2.3 mphRainLight Rain
4:50 AM37.4 °F37.4 °F100 %29.98 in6.2 miCalmMostly Cloudy
5:00 AM38.0 °F36.0 °F88 %30.05 inSSW (210°)2.3 mph
5:20 AM37.4 °F37.4 °F100 %30.01 in6.2 miSSW (200°)3.5 mphMostly Cloudy
5:50 AM37.4 °F37.4 °F100 %30.01 in6.2 miWSW (240°)4.6 mphRainLight Rain
6:00 AM38.0 °F36.0 °F87 %30.06 inSW (220°)6.9 mph
6:20 AM37.4 °F37.4 °F100 %30.01 in6.2 miVariable2.3 mphRainLight Rain
6:50 AM37.4 °F37.4 °F100 %30.01 in6.2 miSW (230°)3.5 mphRainLight Rain
7:00 AM38.0 °F36.0 °F90 %30.07 in11.0 miSSW (210°)4.6 mphRainLight Rain
7:20 AM37.4 °F37.4 °F100 %30.01 in6.2 miWSW (250°)2.3 mphRainLight Rain
7:50 AM37.4 °F37.4 °F100 %30.04 in6.2 miVariable1.2 mphMostly Cloudy
8:00 AM38.0 °F36.0 °F92 %30.08 inWNW (290°)3.5 mph
8:20 AM37.4 °F37.4 °F100 %30.04 in6.2 miVariable1.2 mphMostly Cloudy
8:50 AM39.2 °F37.4 °F93 %30.04 in6.2 miVariable2.3 mphMostly Cloudy
9:00 AM40.0 °F36.0 °F81 %30.08 inWest (280°)4.6 mph
9:20 AM39.2 °F37.4 °F93 %30.04 in6.2 miVariable2.3 mphOvercast
9:50 AM41.0 °F39.2 °F93 %30.04 in6.2 miSW (230°)3.5 mphMostly Cloudy
10:00 AM40.0 °F36.0 °F80 %30.08 in31.0 miWSW (240°)5.8 mphPartly Cloudy
10:20 AM41.0 °F37.4 °F87 %30.04 in6.2 miWSW (240°)4.6 mphMostly Cloudy
10:50 AM41.0 °F37.4 °F87 %30.04 in6.2 miVariable3.5 mphMostly Cloudy
11:00 AM42.0 °F38.0 °F79 %30.08 inSW (220°)5.8 mph
11:20 AM41.0 °F37.4 °F87 %30.04 in6.2 miSW (230°)4.6 mphMostly Cloudy
11:50 AM42.8 °F37.4 °F81 %30.04 in6.2 miSSW (210°)4.6 mphMostly Cloudy
12:00 PM42.0 °F36.0 °F74 %30.08 inSSW (200°)6.9 mph
12:20 PM42.8 °F39.2 °F87 %30.04 in6.2 miSW (220°)4.6 mphMostly Cloudy
12:50 PM42.8 °F37.4 °F81 %30.04 in6.2 miVariable2.3 mphOvercast
1:00 PM43.0 °F36.0 °F69 %30.07 in31.0 miSW (230°)4.6 mphPartly Cloudy
1:20 PM42.8 °F37.4 °F81 %30.04 in6.2 miSW (230°)3.5 mphOvercast
1:50 PM44.6 °F37.4 °F76 %30.01 in6.2 miVariable2.3 mphOvercast
2:00 PM43.0 °F36.0 °F69 %30.05 inSouth (170°)3.5 mph
2:20 PM44.6 °F37.4 °F76 %30.01 in6.2 miSouth (170°)3.5 mphMostly Cloudy
2:50 PM44.6 °F37.4 °F76 %30.01 in6.2 miCalmMostly Cloudy
3:00 PM44.0 °F36.0 °F64 %30.04 inWSW (250°)2.3 mph
3:20 PM44.6 °F37.4 °F76 %30.01 in6.2 miVariable1.2 mphMostly Cloudy
3:50 PM44.6 °F37.4 °F76 %30.01 in6.2 miCalmMostly Cloudy
4:00 PM44.0 °F35.0 °F60 %30.03 in31.0 miWSW (240°)3.5 mphOvercast
4:20 PM44.6 °F37.4 °F76 %29.98 in6.2 miVariable1.2 mphMostly Cloudy
4:50 PM44.6 °F37.4 °F76 %29.98 in6.2 miVariable1.2 mphMostly Cloudy
5:00 PM43.0 °F37.0 °F71 %30.02 inNE (50°)3.5 mph
5:20 PM42.8 °F37.4 °F81 %29.98 in6.2 miCalmMostly Cloudy
5:50 PM42.8 °F37.4 °F81 %29.98 in6.2 miCalmMostly Cloudy
6:00 PM42.0 °F38.0 °F81 %30.01 inEast (80°)1.2 mph
6:20 PM42.8 °F39.2 °F87 %29.98 in6.2 miVariable1.2 mphMostly Cloudy
6:50 PM41.0 °F39.2 °F93 %29.98 in6.2 miVariable2.3 mphMostly Cloudy
7:00 PM41.0 °F38.0 °F84 %30.01 in34.0 miNNE (20°)3.5 mphScattered Clouds
7:20 PM41.0 °F39.2 °F93 %29.98 in6.2 miVariable2.3 mphMostly Cloudy
7:50 PM39.2 °F37.4 °F93 %29.98 in6.2 miVariable2.3 mphMostly Cloudy
8:00 PM40.0 °F38.0 °F88 %30.01 inNorth (10°)3.5 mph
8:20 PM39.2 °F37.4 °F93 %29.95 in6.2 miNorth (10°)1.2 mphMostly Cloudy
8:50 PM39.2 °F37.4 °F93 %29.95 in6.2 miCalmMostly Cloudy
9:00 PM40.0 °F37.0 °F85 %30.01 inNorth (10°)3.5 mph
9:20 PM39.2 °F39.2 °F100 %29.95 in6.2 miNW (310°)2.3 mphMostly Cloudy
9:50 PM39.2 °F37.4 °F93 %29.95 inCalmClear
10:00 PM40.0 °F37.0 °F86 %30.01 in16.0 miNNW (340°)2.3 mphScattered Clouds
10:20 PM39.2 °F37.4 °F93 %29.95 inCalmClear
10:50 PM39.2 °F37.4 °F93 %29.95 inCalmClear
11:00 PM38.0 °F36.0 °F90 %30.01 inNW (310°)2.3 mph
11:20 PM37.4 °F37.4 °F100 %29.95 in6.2 miCalmFogShallow Fog
11:50 PM35.6 °F35.6 °F100 %29.95 in6.2 miCalmFogShallow Fog
Hourly data recorded from LSGG, located miles away from Geneva, Switzerland







STORIES FROM OUR PARTNERS